Location: Newark
(12.6500°N, 8.0000°W)
Time: 07:03:30
(UTC+00:00)

Hubble Space Telescope - Visible Passes

Search period start: 19 October 2019 00:00
Search period end: 29 October 2019 00:00
Orbit: 536 x 540 km, 28.5° (Epoch: 19 October)

Date Brightness Start Highest point End Pass type
(mag) Time Alt. Az. Time Alt. Az. Time Alt. Az.
21 Oct 3.1 06:01:18 10° SSW 06:04:33 23° SSE 06:07:49 10° E visible
22 Oct 2.5 05:50:18 10° SSW 05:53:58 31° SSE 05:57:38 10° E visible
23 Oct 1.8 05:39:27 10° SW 05:43:22 43° SSE 05:47:18 10° ENE visible
24 Oct 1.1 05:29:04 12° SW 05:32:48 62° SSE 05:36:52 10° ENE visible
25 Oct 0.7 05:19:51 24° WSW 05:22:13 88° SSE 05:26:21 10° ENE visible
26 Oct 0.7 05:10:33 44° W 05:11:40 67° NNW 05:15:45 10° ENE visible
27 Oct 1.0 05:01:09 48° NNW 05:01:09 48° NNW 05:05:06 10° NE visible
28 Oct 2.0 04:51:39 31° N 04:51:39 31° N 04:54:25 10° NE visible
